Flag for Norway Weather past 2 weeks in Fevik, Norway

Now
59 °F

Cool.


Feels Like: 57 °F
Forecast: 55 / 62 °F
Wind: 13 mph from East

Location: Torungen Fyr

Current Time: Sep 15, 2014 at 12:12:03 PM

Latest Report: Sep 15, 2014 at 11:00 AM


Visibility: N/A

Pressure: 30.42 "Hg

Humidity: 83%

Dew point: 54 °F

Location of FevikLocation

Historic Weather in Fevik — Graph

°F

Fevik temperature yesterday

Maximum temperature yesterday: 63 °F (at 6:00 PM)
Minimum temperature yesterday: 54 °F (at 5:00 AM)
Average temperature yesterday: 59 °F

Past Weeks' High & Low Weather Summary

 TemperatureHumidityPressure
High65 °F (Sep 4, 2:00 PM)97% (Sep 7, 10:00 AM)30.45 "Hg (Sep 7, 10:00 AM)
Low52 °F (Sep 9, 8:00 AM)67% (Sep 10, 11:00 AM)29.79 "Hg (Sep 9, 5:00 AM)
Average59 °F85%30.16 "Hg
* Reported Aug 31 10:00 AM — Sep 15 10:00 AM, Fevik, Weather by CustomWeather, © 2014

Note: Actual official high and low records may vary slightly from our data, if they occured in-between our weather recording intervals... More about our weather records

Advertising

Fevik weather history for previous 24 hours

 ConditionsComfort  
Time TempWeatherWind HumidityBarometerVisibility
10:00 AM
Sep 15
59 °FCool.13 mph86%30.41 "HgN/A
9:00 AM58 °FCool.10 mph86%30.40 "HgN/A
8:00 AM56 °FCool.9 mph88%30.40 "HgN/A
7:00 AM57 °FCool.9 mph88%30.39 "HgN/A
6:00 AM57 °FCool.9 mph87%30.40 "HgN/A
5:00 AM58 °FCool.9 mph88%30.41 "HgN/A
4:00 AM58 °FCool.9 mph87%30.41 "HgN/A
3:00 AM59 °FCool.8 mph86%30.41 "HgN/A
2:00 AM62 °FCool.10 mph84%30.41 "HgN/A
1:00 AM62 °FCool.10 mph82%30.41 "HgN/A
12:00 AM62 °FCool.10 mph79%30.41 "HgN/A
11:00 PM
Sep 14
62 °FCool.8 mph80%30.40 "HgN/A
10:00 PM63 °FMild.8 mph81%30.41 "HgN/A
9:00 PM62 °FCool.7 mph80%30.40 "HgN/A
8:00 PM63 °FMild.7 mph78%30.40 "HgN/A
7:00 PM63 °FMild.7 mph78%30.39 "HgN/A
6:00 PM63 °FMild.9 mph71%30.39 "HgN/A
5:00 PM63 °FMild.10 mph70%30.40 "HgN/A
4:00 PM63 °FMild.9 mph68%30.41 "HgN/A
3:00 PM62 °FMild.9 mph70%30.42 "HgN/A
2:00 PM62 °FCool.9 mph75%30.43 "HgN/A
1:00 PM61 °FCool.9 mph76%30.44 "HgN/A
12:00 PM60 °FCool.10 mph76%30.44 "HgN/A
Weather by CustomWeather, © 2014

See weather overviewHow to use our weather pages